Weather History for Key West NAF, FL

Change the Weather History Date:

Thursday, October 25, 2012

  Actual Average Record
Temperature  
Mean Temperature 77 °F -  
Max Temperature 82 °F 83 °F 91 °F (1997)
Min Temperature 72 °F 74 °F 66 °F (1982)
Cooling Degree Days 12    
Growing Degree Days 27 (Base 50)    
Moisture  
Dew Point 70 °F    
Average Humidity 77    
Maximum Humidity 89    
Minimum Humidity 66    
Precipitation  
Precipitation 0.40 in - - ()
Sea Level Pressure  
Sea Level Pressure 29.73 in    
Wind  
Wind Speed 15 mph (NNE)    
Max Wind Speed 22 mph    
Max Gust Speed 34 mph    
Visibility 9 miles    
Events Rain    
Averages and records for this station are not official NWS values.
T = Trace of Precipitation, MM = Missing Value Source: NWS Daily Summary

Daily Weather History Graph

Daily Weather History Graph

Search for Another Location

Airport:

Trip Planner

Search our weather history database for the weather conditions in past years. The results will help you decide how hot, cold, wet, or windy it might be!

Date:

Astronomy

Oct. 25, 2012 Rise Set
Actual Time 7:29 AM EDT 6:51 PM EDT
Civil Twilight 7:06 AM EDT 7:14 PM EDT
Nautical Twilight 6:39 AM EDT 7:41 PM EDT
Astronomical Twilight 6:13 AM EDT 8:07 PM EDT
Moon 4:17 PM EDT (10/25) 3:48 AM EDT (10/25)
Length of Visible Light 12h 07m
Length of Day
11h 21m
Waxing Gibbous, 84% of the Moon is Illuminated
Oct 25
Waxing Gibbous
Oct 29
Full
Nov 6
Last Quarter
Nov 13
New
Nov 20
First Quarter

Hourly Weather History & Observations

Time (EDT) Temp. Heat Index Dew Point Humidity Pressure Visibility Wind Dir Wind Speed Gust Speed Precip Events Conditions
12:53 AM 75.9 °F - 69.1 °F 79% 29.80 in 10.0 mi NE 10.4 mph 19.6 mph 0.01 in Rain Light Rain
1:53 AM 78.1 °F - 71.1 °F 79% 29.77 in 10.0 mi NE 12.7 mph 23.0 mph 0.00 in   Clear
2:53 AM 80.1 °F 83.2 °F 70.0 °F 71% 29.75 in 10.0 mi NE 16.1 mph 25.3 mph N/A   Partly Cloudy
3:53 AM 79.0 °F - 70.0 °F 74% 29.73 in 10.0 mi NNE 12.7 mph 19.6 mph 0.01 in   Clear
4:53 AM 79.0 °F - 71.1 °F 77% 29.73 in 10.0 mi NNE 16.1 mph 23.0 mph N/A   Partly Cloudy
5:53 AM 79.0 °F - 72.0 °F 79% 29.73 in 10.0 mi NNE 17.3 mph 24.2 mph N/A   Partly Cloudy
6:12 AM 78.8 °F - 71.6 °F 78% 29.73 in 10.0 mi NNE 15.0 mph 26.5 mph N/A   Partly Cloudy
6:53 AM 79.0 °F - 72.0 °F 79% 29.74 in 10.0 mi NNE 18.4 mph 24.2 mph N/A   Scattered Clouds
7:48 AM 77.0 °F - 71.6 °F 83% 29.76 in 4.0 mi NNE 13.8 mph 23.0 mph 0.01 in Rain Rain
7:53 AM 77.0 °F - 72.0 °F 84% 29.75 in 4.0 mi NNE 12.7 mph 21.9 mph 0.03 in Rain Light Rain
8:15 AM 77.0 °F - 71.6 °F 83% 29.77 in 0.5 mi NNE 20.7 mph 29.9 mph 0.12 in Rain Heavy Rain
8:24 AM 75.2 °F - 71.6 °F 89% 29.77 in 3.0 mi NNE 12.7 mph 27.6 mph 0.19 in Rain Light Rain
8:53 AM 77.0 °F - 72.0 °F 84% 29.76 in 10.0 mi NNE 16.1 mph - 0.19 in   Mostly Cloudy
9:53 AM 79.0 °F - 71.1 °F 77% 29.77 in 10.0 mi NNE 12.7 mph 20.7 mph N/A   Mostly Cloudy
10:09 AM 78.8 °F - 71.6 °F 78% 29.78 in 4.0 mi NNE 13.8 mph 26.5 mph 0.02 in Rain Light Rain
10:32 AM 78.8 °F - 71.6 °F 78% 29.78 in 10.0 mi North 18.4 mph 26.5 mph 0.06 in   Mostly Cloudy
10:53 AM 79.0 °F - 71.1 °F 77% 29.77 in 10.0 mi NNE 17.3 mph 24.2 mph 0.06 in   Mostly Cloudy
11:07 AM 78.8 °F - 71.6 °F 78% 29.77 in 5.0 mi NNE 15.0 mph 23.0 mph 0.01 in Rain Light Rain
11:53 AM 79.0 °F - 72.0 °F 79% 29.76 in 10.0 mi NNE 19.6 mph 27.6 mph 0.02 in   Mostly Cloudy
12:53 PM 81.0 °F 84.9 °F 71.1 °F 72% 29.73 in 10.0 mi North 15.0 mph - N/A   Mostly Cloudy
1:53 PM 82.0 °F 86.3 °F 71.1 °F 69% 29.71 in 10.0 mi North 16.1 mph 23.0 mph N/A   Mostly Cloudy
2:53 PM 80.1 °F 83.2 °F 70.0 °F 71% 29.68 in 10.0 mi North 18.4 mph 29.9 mph N/A   Overcast
3:34 PM 80.6 °F 84.6 °F 71.6 °F 74% 29.70 in 10.0 mi NNE 19.6 mph 34.5 mph 0.00 in Rain Light Rain
3:53 PM 72.0 °F - 66.9 °F 84% 29.69 in 3.0 mi NE 15.0 mph 31.1 mph 0.05 in Rain Rain
4:02 PM 73.4 °F - 66.2 °F 78% 29.69 in 6.0 mi NNE 13.8 mph 21.9 mph N/A Rain Light Rain
4:53 PM 78.1 °F - 72.0 °F 81% 29.66 in 10.0 mi North 16.1 mph 23.0 mph N/A Rain Light Rain
5:53 PM 79.0 °F - 70.0 °F 74% 29.69 in 10.0 mi NNE 20.7 mph 28.8 mph 0.00 in   Overcast
6:35 PM 77.0 °F - 69.8 °F 78% 29.70 in 10.0 mi NNE 19.6 mph 28.8 mph 0.01 in Rain Light Rain
6:53 PM 77.0 °F - 69.1 °F 76% 29.70 in 10.0 mi NNE 18.4 mph 29.9 mph 0.01 in Rain Light Rain
7:53 PM 75.9 °F - 70.0 °F 82% 29.72 in 10.0 mi NNE 17.3 mph 27.6 mph 0.02 in Rain Light Rain
8:29 PM 77.0 °F - 69.8 °F 78% 29.72 in 10.0 mi NNE 17.3 mph 25.3 mph 0.00 in   Overcast
8:53 PM 77.0 °F - 70.0 °F 79% 29.73 in 10.0 mi NNE 15.0 mph 27.6 mph 0.00 in   Overcast
9:53 PM 78.1 °F - 66.0 °F 66% 29.71 in 10.0 mi NNE 15.0 mph 26.5 mph N/A   Overcast
10:53 PM 78.1 °F - 68.0 °F 71% 29.71 in 10.0 mi North 19.6 mph 29.9 mph N/A   Clear
11:53 PM 79.0 °F - 68.0 °F 69% 29.68 in 10.0 mi North 21.9 mph 34.5 mph N/A   Clear